UA1ZPU-15 Weather Reports


time (UTC)temp
F
wind
direction
speed
knots
gust
knots
rain 1hr
in
rain 24hr
in
rain mn
in
humidity
%
barometer
mb
20260506192211 29 0.0 0.0 0.00 0.00 0.00 51 974.9
20260506191209 29 0.0 0.0 0.00 0.00 0.00 47 974.8
20260506190206 29 0.0 0.0 0.00 0.00 0.00 41 974.7
20260506185203 30 0.0 0.0 0.00 0.00 0.00 37 974.7
20260506184201 31 0.0 0.0 0.00 0.00 0.00 34 974.6
20260506183200 33 0.0 0.0 0.00 0.00 0.00 26 974.6
20260506182156 34 0.0 0.0 0.00 0.00 0.00 20 974.5
20260506181308 34 0.0 0.0 0.00 0.00 0.00 20 974.5
20260506181153 34 0.0 0.0 0.00 0.00 0.00 19 974.5
20260506180700 35 0.0 0.0 0.00 0.00 0.00 19 974.5
20260506175656 35 0.0 0.0 0.00 0.00 0.00 18 974.3
20260506174653 35 0.0 0.0 0.00 0.00 0.00 19 974.3
20260506173806 35 0.0 0.0 0.00 0.00 0.00 20 974.3
20260506173652 35 0.0 0.0 0.00 0.00 0.00 20 974.2
20260506125935 36 0.0 0.0 0.00 0.00 0.00 28 971.9
20260506124932 36 0.0 0.0 0.00 0.00 0.00 29 971.9
20260506123930 37 0.0 0.0 0.00 0.00 0.00 25 971.7
20260506122929 39 0.0 0.0 0.00 0.00 0.00 20 971.5
20260506121925 39 0.0 0.0 0.00 0.00 0.00 23 971.3
20260506121037 39 0.0 0.0 0.00 0.00 0.00 24 971.3
20260506120922 39 0.0 0.0 0.00 0.00 0.00 24 971.2
20260506120215 38 0.0 0.0 0.00 0.00 0.00 26 971.2
20260506115212 38 0.0 0.0 0.00 0.00 0.00 27 971.0
20260506114325 38 0.0 0.0 0.00 0.00 0.00 30 971.0
20260506114210 38 0.0 0.0 0.00 0.00 0.00 31 970.9
20260506090601 37 0.0 0.0 0.00 0.00 0.00 36 969.1
20260506085558 36 0.0 0.0 0.00 0.00 0.00 42 969.0
20260506084555 35 0.0 0.0 0.00 0.00 0.00 51 969.0
20260506083552 35 0.0 0.0 0.00 0.00 0.00 54 968.7
20260506082549 34 0.0 0.0 0.00 0.00 0.00 53 968.6
20260506081545 35 0.0 0.0 0.00 0.00 0.00 50 968.6
20260506080544 35 0.0 0.0 0.00 0.00 0.00 50 968.3
20260506072531 34 0.0 0.0 0.00 0.00 0.00 53 967.9
20260506071528 34 0.0 0.0 0.00 0.00 0.00 55 967.8
20260506070525 34 0.0 0.0 0.00 0.00 0.00 53 967.6
20260506062456 34 0.0 0.0 0.00 0.00 0.00 51 967.0
20260506061452 34 0.0 0.0 0.00 0.00 0.00 58 966.9
20260506060450 33 0.0 0.0 0.00 0.00 0.00 57 966.8